W4SNA-3 Weather Reports


Display with metric or nautical units.
time (UTC)temp
F
wind
direction
speed
MPH
gust
MPH
rain 1hr
in
rain 24hr
in
rain mn
in
humidity
%
barometer
mb
20260507115006 54 0 0.0 3.0 0.00 0.05 0.02 98 1010.2
20260507114517 55 0 0.0 3.0 0.00 0.05 0.02 98 1009.8
20260507114011 55 0 0.0 3.0 0.00 0.05 0.02 98 1009.6
20260507113506 55 0 0.0 3.0 0.00 0.05 0.02 98 1009.5
20260507113001 55 120 1.0 4.0 0.00 0.05 0.02 98 1009.5
20260507112517 55 0 0.0 4.0 0.00 0.05 0.02 98 1009.5
20260507112004 55 0 0.0 3.0 0.00 0.05 0.02 98 1009.3
20260507111501 55 0 0.0 3.0 0.00 0.05 0.02 98 1009.6
20260507111002 55 20 1.0 4.0 0.00 0.05 0.02 98 1009.6
20260507110501 56 22 1.0 6.0 0.00 0.05 0.02 98 1009.3
20260507110001 56 29 3.0 6.0 0.00 0.05 0.02 98 1009.1
20260507105517 56 10 1.0 4.0 0.00 0.05 0.02 98 1009.2
20260507105001 56 336 1.0 3.0 0.00 0.05 0.02 98 1009.4
20260507104501 56 336 2.0 3.0 0.00 0.05 0.02 98 1009.4
20260507104017 56 17 2.0 3.0 0.00 0.05 0.02 98 1009.3
20260507103501 56 27 1.0 3.0 0.00 0.05 0.02 98 1009.5
20260507103001 56 28 1.0 3.0 0.00 0.05 0.02 98 1009.5
20260507102442 56 0 0.0 4.0 0.00 0.05 0.02 98 1009.2
20260507101942 56 0 0.0 4.0 0.00 0.05 0.02 98 1009.5
20260507101443 56 0 0.0 2.0 0.00 0.05 0.02 98 1009.7
20260507100948 56 251 1.0 2.0 0.00 0.05 0.02 98 1009.6
20260507100442 56 0 0.0 2.0 0.00 0.05 0.02 98 1009.6
20260507095942 56 0 0.0 2.0 0.00 0.05 0.02 98 1009.4
20260507095442 56 0 0.0 1.0 0.00 0.05 0.02 98 1009.2
20260507094942 56 0 0.0 1.0 0.00 0.05 0.02 98 1009.3
20260507094442 56 0 0.0 1.0 0.00 0.05 0.02 98 1009.4
20260507093942 56 0 0.0 0.0 0.00 0.05 0.02 98 1009.3
20260507093442 56 0 0.0 0.0 0.00 0.05 0.02 98 1009.3
20260507092946 56 0 0.0 0.0 0.00 0.05 0.02 98 1008.9
20260507092442 56 0 0.0 0.0 0.01 0.05 0.02 98 1008.5
20260507091942 56 0 0.0 2.0 0.01 0.05 0.02 98 1008.8
20260507091442 56 0 0.0 2.0 0.01 0.05 0.02 98 1009.0
20260507090942 56 0 0.0 2.0 0.01 0.05 0.02 98 1009.0
20260507090500 56 0 0.0 2.0 0.01 0.05 0.02 98 1009.2
20260507085942 56 0 0.0 1.0 0.01 0.05 0.02 98 1009.3
20260507085442 56 0 0.0 1.0 0.01 0.05 0.02 98 1009.3
20260507084943 56 0 0.0 3.0 0.01 0.05 0.02 98 1009.5
20260507084508 57 0 0.0 3.0 0.01 0.05 0.02 98 1009.5
20260507083942 57 0 0.0 3.0 0.01 0.05 0.02 98 1009.6
20260507083444 57 0 0.0 3.0 0.01 0.05 0.02 98 1009.6
20260507082942 57 0 0.0 0.0 0.01 0.05 0.02 98 1009.7
20260507082442 57 0 0.0 0.0 0.00 0.04 0.01 98 1009.8
20260507081950 57 0 0.0 0.0 0.00 0.04 0.01 98 1010.0
20260507081442 57 0 0.0 0.0 0.00 0.04 0.01 98 1009.8
20260507080943 57 0 0.0 0.0 0.00 0.04 0.01 98 1009.8
20260507080444 57 0 0.0 0.0 0.00 0.04 0.01 98 1009.7
20260507080046 57 0 0.0 0.0 0.00 0.04 0.01 98 1009.5
20260507075442 57 0 0.0 0.0 0.00 0.04 0.01 98 1009.8
20260507075003 57 0 0.0 2.0 0.00 0.04 0.01 98 1010.0
20260507074511 57 0 0.0 3.0 0.00 0.04 0.01 98 1010.1
20260507073944 57 0 0.0 3.0 0.00 0.04 0.01 98 1010.0
20260507073443 57 0 0.0 2.0 0.00 0.04 0.01 98 1009.8
20260507072942 57 0 0.0 1.0 0.00 0.04 0.01 98 1009.9
20260507072442 58 0 0.0 2.0 0.00 0.04 0.01 98 1009.8
20260507071942 58 0 0.0 2.0 0.00 0.04 0.01 98 1009.8
20260507071442 58 0 0.0 2.0 0.00 0.04 0.01 98 1009.9
20260507070943 58 0 0.0 4.0 0.00 0.04 0.01 98 1010.1
20260507070500 58 0 0.0 4.0 0.00 0.04 0.01 98 1010.1
20260507065944 58 0 0.0 4.0 0.00 0.04 0.01 98 1010.2
20260507065442 58 0 0.0 5.0 0.00 0.04 0.01 98 1010.3
20260507064942 58 0 0.0 5.0 0.00 0.04 0.01 98 1010.1
20260507064442 58 0 0.0 2.0 0.00 0.04 0.01 98 1010.0
20260507063947 58 0 0.0 1.0 0.00 0.04 0.01 98 1010.0
20260507063443 58 0 0.0 0.0 0.00 0.04 0.01 98 1010.0
20260507062942 58 0 0.0 3.0 0.00 0.04 0.01 98 1010.1
20260507062442 58 0 0.0 3.0 0.00 0.04 0.01 98 1010.4
20260507061942 58 0 0.0 1.0 0.00 0.04 0.01 98 1010.4
20260507061442 58 0 0.0 3.0 0.00 0.04 0.01 98 1010.4
20260507060950 58 0 0.0 3.0 0.00 0.04 0.01 98 1010.5
20260507060500 58 0 0.0 3.0 0.00 0.04 0.01 98 1010.6
20260507055943 58 0 0.0 3.0 0.00 0.04 0.01 98 1010.7
20260507055444 58 0 0.0 1.0 0.00 0.04 0.01 98 1009.9
20260507054944 58 0 0.0 1.0 0.00 0.04 0.01 98 1010.1
20260507054442 58 0 0.0 1.0 0.00 0.04 0.01 98 1010.4
20260507053942 58 0 0.0 1.0 0.00 0.04 0.01 98 1010.2
20260507053448 58 0 0.0 0.0 0.00 0.04 0.01 98 1010.2
20260507052942 58 0 0.0 1.0 0.00 0.04 0.01 98 1010.2
20260507052442 58 0 0.0 1.0 0.01 0.04 0.01 98 1010.3
20260507051943 58 0 0.0 0.0 0.01 0.04 0.01 98 1010.5
20260507051058 58 0 0.0 0.0 0.01 0.04 0.01 97 1010.7
20260507050550 58 0 0.0 0.0 0.01 0.04 0.01 97 1010.8
20260507050050 58 0 0.0 0.0 0.01 0.04 0.01 97 1010.6
20260507045603 58 0 0.0 0.0 0.01 0.04 0.01 97 1010.7
20260507045052 58 0 0.0 1.0 0.01 0.04 0.01 97 1011.1
20260507044550 58 0 0.0 1.0 0.01 0.04 0.01 97 1011.2
20260507044050 58 0 0.0 1.0 0.01 0.04 0.01 97 1011.2
20260507043550 58 0 0.0 1.0 0.01 0.04 0.01 98 1011.3
20260507043052 58 0 0.0 1.0 0.01 0.04 0.01 98 1011.2
20260507042550 58 0 0.0 1.0 0.00 0.03 0.00 98 1011.2
20260507041615 58 0 0.0 1.0 0.00 0.03 0.00 97 1011.4
20260507041121 58 0 0.0 1.0 0.00 0.03 0.00 97 1011.0
20260507040615 58 0 0.0 1.0 0.00 0.03 0.00 97 1011.2
20260507040115 58 0 0.0 0.0 0.00 0.03 0.00 97 1010.9
20260507035615 58 0 0.0 1.0 0.01 0.03 0.00 97 1011.1
20260507035116 58 0 0.0 2.0 0.01 0.03 0.03 97 1010.8
20260507034616 58 0 0.0 2.0 0.02 0.03 0.03 97 1010.8
20260507034115 58 0 0.0 1.0 0.02 0.03 0.03 97 1010.8
20260507033615 58 0 0.0 1.0 0.02 0.03 0.03 97 1010.4
20260507033115 58 0 0.0 1.0 0.02 0.03 0.03 97 1010.3
20260507032615 58 0 0.0 1.0 0.02 0.03 0.03 97 1010.3
20260507032115 58 0 0.0 2.0 0.02 0.03 0.03 97 1010.3
20260507031615 58 0 0.0 3.0 0.02 0.03 0.03 97 1010.4
20260507031115 59 0 0.0 3.0 0.02 0.03 0.03 97 1010.7
20260507030617 59 0 0.0 3.0 0.02 0.03 0.03 97 1010.5
20260507030115 59 0 0.0 3.0 0.02 0.03 0.03 97 1010.3
20260507025615 59 0 0.0 0.0 0.01 0.02 0.02 97 1011.6
20260507025115 59 0 0.0 0.0 0.01 0.02 0.02 97 1012.1
20260507024615 59 0 0.0 1.0 0.00 0.01 0.01 97 1012.2
20260507024115 59 0 0.0 4.0 0.00 0.01 0.01 97 1012.1
20260507023618 59 0 0.0 4.0 0.00 0.01 0.01 97 1012.0
20260507023115 59 0 0.0 1.0 0.00 0.01 0.01 97 1011.9
20260507022615 59 0 0.0 2.0 0.00 0.01 0.01 97 1011.6
20260507022115 59 0 0.0 2.0 0.00 0.01 0.01 97 1011.5
20260507021615 59 0 0.0 2.0 0.00 0.01 0.01 97 1011.4
20260507021125 59 0 0.0 1.0 0.00 0.01 0.01 97 1011.2
20260507020615 59 0 0.0 1.0 0.00 0.01 0.01 97 1011.1
20260507020115 59 0 0.0 1.0 0.00 0.01 0.01 97 1011.0
20260507015615 59 0 0.0 1.0 0.00 0.01 0.01 97 1011.0
20260507015115 59 0 0.0 1.0 0.00 0.01 0.01 97 1010.9
20260507014615 59 0 0.0 1.0 0.00 0.01 0.01 97 1010.9
20260507014131 60 0 0.0 3.0 0.00 0.01 0.01 97 1011.1
20260507013615 60 0 0.0 3.0 0.00 0.01 0.01 97 1011.1
20260507013127 60 0 0.0 0.0 0.00 0.01 0.01 97 1011.1
20260507012615 60 0 0.0 2.0 0.00 0.01 0.01 97 1011.2
20260507012115 60 0 0.0 2.0 0.00 0.01 0.01 97 1011.0
20260507011615 60 0 0.0 2.0 0.00 0.01 0.01 97 1010.7
20260507011115 60 0 0.0 1.0 0.00 0.01 0.01 96 1010.6
20260507010615 60 0 0.0 1.0 0.00 0.01 0.01 96 1010.9
20260507010319 60 0 0.0 1.0 0.00 0.01 0.01 96 1010.9
20260507010158 60 0 0.0 1.0 0.00 0.01 0.01 96 1010.9
20260507005626 60 0 0.0 0.0 0.00 0.01 0.01 96 1010.6
20260507005116 60 0 0.0 1.0 0.00 0.01 0.01 96 1010.9
20260507004617 60 0 0.0 2.0 0.00 0.01 0.01 96 1011.8
20260507004115 60 0 0.0 2.0 0.00 0.01 0.01 96 1011.8
20260507003619 60 0 0.0 0.0 0.00 0.01 0.01 96 1011.7
20260507003116 60 0 0.0 0.0 0.00 0.01 0.01 96 1011.6
20260507002615 60 0 0.0 1.0 0.00 0.01 0.01 96 1011.4
20260507002115 60 0 0.0 1.0 0.00 0.01 0.01 96 1011.4
20260507001615 60 0 0.0 1.0 0.00 0.01 0.01 96 1011.5
20260507001121 60 0 0.0 0.0 0.00 0.01 0.01 96 1011.6
20260507000615 60 0 0.0 1.0 0.00 0.01 0.01 96 1011.6
20260507000134 60 0 0.0 1.0 0.00 0.01 0.01 95 1011.6
20260506235615 60 0 0.0 1.0 0.00 0.01 0.01 95 1011.5
20260506235115 60 0 0.0 1.0 0.00 0.01 0.01 95 1011.4
20260506234615 60 0 0.0 1.0 0.00 0.01 0.01 95 1011.5
20260506234115 60 0 0.0 1.0 0.00 0.01 0.01 95 1011.3
20260506233628 60 0 0.0 1.0 0.00 0.01 0.01 95 1011.1
20260506233115 60 0 0.0 1.0 0.00 0.01 0.01 95 1011.3
20260506232214 60 0 0.0 3.0 0.00 0.01 0.01 95 1011.4
20260506231732 60 0 0.0 1.0 0.00 0.01 0.01 95 1011.2
20260506231214 60 0 0.0 0.0 0.00 0.01 0.01 95 1011.2
20260506230714 60 0 0.0 0.0 0.00 0.01 0.01 95 1011.0
20260506230218 60 0 0.0 2.0 0.00 0.01 0.01 95 1011.2
20260506225714 61 0 0.0 2.0 0.00 0.01 0.01 94 1011.3
20260506225215 61 0 0.0 1.0 0.00 0.01 0.01 94 1011.3
20260506224723 61 0 0.0 1.0 0.00 0.01 0.01 94 1011.3
20260506224214 61 0 0.0 1.0 0.00 0.01 0.01 94 1011.4
20260506223742 61 0 0.0 2.0 0.00 0.01 0.01 94 1011.4
20260506223216 61 0 0.0 2.0 0.00 0.01 0.01 94 1011.5
20260506222714 61 0 0.0 2.0 0.00 0.01 0.01 94 1011.7
20260506222219 61 0 0.0 2.0 0.00 0.01 0.01 94 1011.8
20260506221714 61 0 0.0 5.0 0.00 0.01 0.01 94 1011.9
20260506221215 61 0 0.0 5.0 0.00 0.01 0.01 93 1012.1
20260506220809 61 0 0.0 1.0 0.00 0.01 0.01 93 1011.9
20260506220214 61 0 0.0 1.0 0.00 0.01 0.01 93 1011.9
20260506215714 61 0 0.0 1.0 0.00 0.01 0.01 93 1012.0
20260506215214 62 0 0.0 1.0 0.00 0.01 0.01 93 1011.9
20260506214510 62 0 0.0 1.0 0.00 0.01 0.01 93 1011.6
20260506214010 62 0 0.0 1.0 0.00 0.01 0.01 94 1011.2
20260506213511 61 0 0.0 1.0 0.00 0.01 0.01 94 1011.3
20260506213010 61 0 0.0 1.0 0.00 0.01 0.01 93 1011.3
20260506212510 61 0 0.0 2.0 0.00 0.01 0.01 94 1011.5
20260506212010 61 0 0.0 2.0 0.00 0.01 0.01 94 1011.2
20260506211510 61 0 0.0 1.0 0.00 0.01 0.01 94 1011.1
20260506211017 61 0 0.0 1.0 0.00 0.01 0.01 94 1010.9
20260506210510 61 0 0.0 4.0 0.00 0.01 0.01 94 1011.0
20260506210010 61 0 0.0 4.0 0.00 0.01 0.01 94 1011.0
20260506205513 61 0 0.0 3.0 0.00 0.01 0.01 94 1011.0
20260506205010 61 0 0.0 3.0 0.00 0.01 0.01 94 1010.9
20260506204515 60 0 0.0 3.0 0.00 0.01 0.01 94 1011.1
20260506204019 60 0 0.0 2.0 0.00 0.01 0.01 93 1011.2
20260506203510 60 0 0.0 3.0 0.00 0.01 0.01 93 1011.4
20260506203010 60 0 0.0 3.0 0.00 0.01 0.01 93 1011.2
20260506202510 60 0 0.0 0.0 0.00 0.01 0.01 94 1011.2
20260506202010 60 0 0.0 1.0 0.00 0.01 0.01 94 1011.3
20260506201510 60 0 0.0 1.0 0.00 0.01 0.01 94 1011.4
20260506201010 60 0 0.0 1.0 0.00 0.01 0.01 94 1011.4
20260506200510 60 0 0.0 1.0 0.00 0.01 0.01 94 1011.4
20260506200010 60 0 0.0 1.0 0.00 0.01 0.01 94 1011.4
20260506195510 60 0 0.0 2.0 0.00 0.01 0.01 94 1011.3
20260506195010 60 0 0.0 2.0 0.00 0.01 0.01 95 1011.4
20260506194510 59 0 0.0 3.0 0.00 0.01 0.01 94 1011.2
20260506194010 59 0 0.0 4.0 0.00 0.01 0.01 94 1011.2
20260506193510 59 0 0.0 4.0 0.00 0.01 0.01 95 1011.1
20260506193010 59 0 0.0 3.0 0.00 0.01 0.01 95 1011.1
20260506192518 59 0 0.0 3.0 0.00 0.01 0.01 96 1011.1
20260506192044 59 0 0.0 1.0 0.00 0.01 0.01 96 1011.4
20260506191510 59 0 0.0 1.0 0.00 0.01 0.01 97 1011.3
20260506191010 58 0 0.0 1.0 0.00 0.01 0.01 96 1011.0
20260506190510 58 0 0.0 1.0 0.00 0.01 0.01 96 1011.0
20260506190010 58 0 0.0 0.0 0.00 0.01 0.01 96 1011.0
20260506185023 58 0 0.0 1.0 0.00 0.01 0.01 96 1011.2
20260506184231 57 0 0.0 4.0 0.00 0.01 0.01 96 1011.0
20260506183734 57 0 0.0 4.0 0.00 0.01 0.01 96 1011.0
20260506183231 57 0 0.0 0.0 0.00 0.01 0.01 96 1011.1
20260506182733 56 0 0.0 1.0 0.00 0.01 0.01 96 1011.3
20260506182238 57 0 0.0 1.0 0.00 0.01 0.01 96 1011.4
20260506181731 56 0 0.0 1.0 0.00 0.01 0.01 95 1011.5
20260506181238 56 0 0.0 1.0 0.00 0.01 0.01 95 1011.5
20260506180731 56 0 0.0 1.0 0.00 0.01 0.01 95 1011.3
20260506180236 56 0 0.0 1.0 0.00 0.01 0.01 95 1011.0
20260506175741 56 0 0.0 1.0 0.00 0.01 0.01 95 1011.2
20260506175232 56 0 0.0 1.0 0.00 0.01 0.01 95 1011.2
20260506174734 56 0 0.0 2.0 0.00 0.01 0.01 95 1011.5
20260506174231 56 0 0.0 2.0 0.00 0.01 0.01 95 1011.5
20260506173731 56 0 0.0 2.0 0.00 0.01 0.01 95 1011.5
20260506173231 56 0 0.0 3.0 0.00 0.01 0.01 95 1011.7
20260506172731 56 0 0.0 3.0 0.00 0.01 0.01 95 1012.0
20260506172233 56 0 0.0 1.0 0.00 0.01 0.01 94 1012.3
20260506171736 56 0 0.0 1.0 0.00 0.01 0.01 94 1012.5
20260506171231 56 0 0.0 3.0 0.00 0.01 0.01 94 1012.7
20260506170731 56 0 0.0 3.0 0.00 0.01 0.01 94 1012.9
20260506170231 56 0 0.0 2.0 0.00 0.01 0.01 94 1012.9
20260506165731 56 0 0.0 3.0 0.00 0.01 0.01 94 1013.0
20260506165231 56 0 0.0 3.0 0.00 0.01 0.01 94 1012.9
20260506164731 56 0 0.0 4.0 0.00 0.01 0.01 93 1012.9
20260506164231 56 0 0.0 5.0 0.00 0.01 0.01 93 1012.9
20260506163732 56 0 0.0 5.0 0.00 0.01 0.01 93 1012.8
20260506163231 56 0 0.0 1.0 0.00 0.01 0.01 93 1012.8
20260506162731 56 0 0.0 2.0 0.00 0.01 0.01 93 1012.8
20260506162231 56 0 0.0 2.0 0.00 0.01 0.01 93 1012.8
20260506161731 56 0 0.0 2.0 0.00 0.01 0.01 93 1012.7
20260506161231 56 0 0.0 2.0 0.00 0.01 0.01 93 1012.7
20260506160749 56 0 0.0 2.0 0.00 0.01 0.01 93 1012.6
20260506160231 56 0 0.0 3.0 0.00 0.01 0.01 93 1012.2
20260506155731 56 0 0.0 3.0 0.00 0.01 0.01 93 1012.0
20260506155231 56 0 0.0 1.0 0.00 0.01 0.01 93 1012.0
20260506154731 56 0 0.0 2.0 0.00 0.01 0.01 93 1012.0
20260506154236 56 0 0.0 2.0 0.00 0.01 0.01 93 1012.0
20260506153739 56 0 0.0 1.0 0.00 0.01 0.01 93 1012.0
20260506153240 56 0 0.0 2.0 0.00 0.01 0.01 93 1011.7
20260506152731 56 0 0.0 2.0 0.00 0.01 0.01 93 1011.6
20260506152231 56 0 0.0 2.0 0.00 0.01 0.01 94 1011.7
20260506151734 56 0 0.0 1.0 0.00 0.01 0.01 94 1011.5
20260506150834 56 0 0.0 1.0 0.00 0.01 0.01 95 1011.8
20260506150335 56 0 0.0 2.0 0.00 0.01 0.01 95 1011.8
20260506145836 56 0 0.0 2.0 0.00 0.01 0.01 96 1011.8
20260506145044 55 0 0.0 5.0 0.00 0.01 0.01 96 1011.7
20260506144544 55 0 0.0 5.0 0.00 0.01 0.01 96 1011.6
20260506143929 55 0 0.0 2.0 0.00 0.01 0.01 96 1011.9
20260506143430 54 0 0.0 2.0 0.00 0.01 0.01 97 1011.9
20260506142930 54 0 0.0 4.0 0.00 0.01 0.01 96 1011.5
20260506142431 54 248 1.0 4.0 0.00 0.01 0.01 97 1011.6
20260506141930 54 0 0.0 3.0 0.00 0.01 0.01 96 1011.7
20260506141431 53 0 0.0 3.0 0.00 0.01 0.01 96 1011.4
20260506140930 53 0 0.0 4.0 0.00 0.01 0.01 97 1011.4
20260506140431 53 0 0.0 5.0 0.00 0.01 0.01 96 1011.5
20260506135929 53 0 0.0 5.0 0.00 0.01 0.01 96 1011.6
20260506135448 53 0 0.0 3.0 0.01 0.01 0.01 96 1011.5
20260506134931 53 0 0.0 3.0 0.01 0.01 0.01 96 1011.5
20260506134041 53 0 0.0 3.0 0.01 0.01 0.01 96 1011.3
20260506133539 53 0 0.0 3.0 0.01 0.01 0.01 96 1011.3
20260506133039 53 0 0.0 3.0 0.01 0.01 0.01 96 1011.3
20260506132539 53 0 0.0 3.0 0.01 0.01 0.01 96 1011.3
20260506132039 53 0 0.0 2.0 0.01 0.01 0.01 96 1011.3
20260506131542 53 0 0.0 3.0 0.01 0.01 0.01 95 1011.3
20260506131043 53 0 0.0 3.0 0.01 0.01 0.01 95 1011.2
20260506130544 53 0 0.0 2.0 0.01 0.01 0.01 95 1011.3
20260506130039 53 0 0.0 1.0 0.01 0.01 0.01 95 1011.3
20260506125540 53 0 0.0 1.0 0.00 0.00 0.00 95 1011.5
20260506125044 53 0 0.0 1.0 0.00 0.00 0.00 95 1011.4
20260506124548 52 0 0.0 1.0 0.00 0.00 0.00 95 1011.3
20260506124041 52 0 0.0 1.0 0.00 0.00 0.00 95 1011.1
20260506123544 52 0 0.0 1.0 0.00 0.00 0.00 95 1011.2
20260506123039 52 0 0.0 2.0 0.00 0.00 0.00 95 1011.2
20260506122541 52 0 0.0 2.0 0.00 0.00 0.00 95 1011.3
20260506122039 52 0 0.0 2.0 0.00 0.00 0.00 95 1011.7
20260506121540 52 0 0.0 2.0 0.00 0.00 0.00 95 1011.5
20260506121040 52 0 0.0 1.0 0.00 0.00 0.00 95 1011.5
20260506120539 52 0 0.0 2.0 0.00 0.00 0.00 95 1011.4
20260506120039 52 0 0.0 2.0 0.00 0.00 0.00 95 1011.4
20260506115539 52 0 0.0 4.0 0.00 0.00 0.00 95 1011.3
20260506115039 52 0 0.0 4.0 0.00 0.00 0.00 95 1011.3